Tracking 19570 objects as of 21-Feb-2019
HD Live streaming from Space Station
objects crossing your sky now

SL-16 DEB

Track SL-16 DEB now!
10-day predictions


NORAD ID: 39903
Int'l Code: 1993-016CD
Perigee: 850.8 km
Apogee: 1,047.9 km
Inclination: 71.0 °
Period: 103.9 minutes
Semi major axis: 7320 km
RCS: Unknown
Launch date: March 26, 1993
Source: Commonwealth of Independent States (former USSR) (CIS)
Launch site: TYURATAM MISSILE AND SPACE COMPLEX (TTMTR)

Note: This is SATELLITE DEBRIS
aabbcc
Your satellite tracking list
Your tracking list is empty




NASA's NSSDC Master Catalog

Two Line Element Set (TLE):
1 39903U 93016CD  19044.55828913 -.00000001  00000-0  34153-4 0  9994
2 39903  70.9903 104.8979 0134671 116.5555 313.9031 13.86129762798595
Source of the keplerian elements: AFSPC